Theta_e
314 314 317 318 316 315 317 321 323 324 325 323 321 320 320 320 321 323 326 326 325 322 320 318 317 316 315 314 313 312 312 311 314 310 309 309 313 313 313 314 314 315 316
308 314 316 317 317 317 318 319 321 324 324 324 322 323 321 321 321 322 324 326 324 321 319 318 316 315 312 313 313 313 310 311 314 310 308 304 308 312 313 313 313 313 315
307 312 315 317 318 317 318 318 320 323 324 324 322 321 320 321 319 319 321 323 325 322 320 320 316 315 312 312 313 311 311 309 310 314 309 303 304 308 310 311 312 313 313
307 313 314 316 318 318 319 318 319 320 322 322 321 319 318 316 319 319 321 322 324 324 321 319 318 315 314 314 314 313 312 312 310 308 310 310 308 306 303 307 311 313 313
307 312 314 316 318 319 317 316 318 319 320 321 321 320 319 318 319 319 319 321 321 323 323 320 320 318 317 316 315 314 312 312 312 310 308 308 308 308 307 304 305 308 312
306 311 314 316 317 318 316 317 317 316 318 319 320 319 316 316 316 317 317 319 319 320 321 322 319 319 319 317 317 315 313 313 313 312 310 309 308 307 307 305 305 305 307
304 310 313 315 316 315 316 316 315 314 315 316 317 317 316 316 316 316 317 317 318 317 317 320 319 320 319 319 317 315 313 312 312 313 312 312 312 312 311 309 307 306 308
304 310 313 314 315 315 315 316 315 314 313 312 314 315 312 314 317 317 318 318 318 318 318 318 318 318 319 319 318 317 316 315 313 312 313 312 313 312 311 310 308 304 304
301 308 312 313 315 315 314 315 315 315 315 313 313 312 312 313 315 317 317 318 319 319 317 317 318 317 318 318 318 318 317 317 316 314 313 313 313 313 312 311 310 309 304
308 311 312 314 315 316 316 316 315 315 315 316 312 313 312 311 311 314 314 316 317 317 315 315 317 317 317 317 317 317 317 316 316 316 314 313 314 314 313 312 311 310 308
309 310 312 314 315 315 315 314 314 315 315 315 316 312 312 311 310 310 311 314 314 315 314 314 315 315 316 317 316 316 315 315 315 316 314 313 314 313 314 314 313 312 312
305 311 312 313 313 314 315 314 315 315 315 316 316 316 315 312 310 310 310 311 313 312 313 316 314 314 315 316 316 315 315 313 313 314 314 313 314 313 313 313 313 314 315
299 301 303 304 308 312 314 314 315 316 316 317 316 315 315 314 312 312 312 311 311 311 311 311 314 315 315 314 315 315 315 313 313 313 312 313 314 313 314 314 314 315 315
297 297 297 299 301 303 304 305 305 306 307 315 316 315 315 316 316 316 315 314 313 312 313 313 313 313 314 315 315 314 314 315 315 316 316 315 314 313 313 313 314 314 314
293 294 294 295 297 297 298 297 298 299 302 304 304 305 309 317 317 317 317 317 316 315 314 313 312 313 313 313 313 314 314 313 313 313 313 314 313 308 311 314 314 314 312
292 291 291 291 291 292 292 293 294 295 297 296 297 298 300 303 303 304 306 314 317 317 316 315 314 313 313 303 300 306 312 313 313 313 313 314 306 305 300 300 302 310 312
291 289 288 288 288 290 290 289 291 293 292 292 292 292 294 295 296 299 300 299 301 303 305 311 315 316 316 302 300 298 310 312 312 312 312 312 313 306 312 304 297 298 297
289 287 287 286 287 289 289 289 290 290 289 288 288 288 289 290 292 292 292 293 296 299 300 301 301 299 296 288 289 290 305 311 313 313 313 312 313 313 311 311 310 307 305
287 286 285 285 286 286 287 288 287 286 285 284 284 284 286 287 288 288 289 291 292 295 295 291 290 287 288 287 288 289 295 307 310 313 314 313 313 307 302 307 307 307 291
286 284 284 285 285 285 287 286 284 283 283 283 282 283 285 285 285 286 287 289 291 291 290 286 285 284 284 286 287 288 293 295 301 305 287 286 287 288 292 296 306 305 288
284 284 283 282 283 285 285 283 282 281 282 282 282 282 283 284 284 285 286 287 287 286 284 283 283 283 283 284 285 286 288 289 285 284 283 284 285 287 290 287 287 285 282
281 282 281 281 282 283 283 280 280 282 282 281 280 280 281 282 282 282 283 283 284 283 282 282 281 282 282 283 283 282 283 283 281 279 280 281 282 283 283 282 282 282 280
280 281 281 280 281 281 282 280 280 281 280 280 280 279 279 280 280 280 280 281 281 280 280 280 280 280 281 280 281 282 281 280 278 279 279 278 278 278 278 279 279 277 276
279 280 279 278 278 280 280 279 280 280 279 278 278 279 278 278 279 279 280 279 279 278 278 277 277 277 278 278 278 277 277 277 277 276 275 275 276 274 274 274 274 274 273
278 278 278 277 277 278 278 280 279 279 278 277 277 277 277 278 277 278 278 278 279 279 276 277 277 276 276 278 280 278 275 274 275 274 274 272 272 271 271 271 271 271 271
275 275 275 275 275 276 276 276 278 279 278 276 275 274 275 275 275 276 275 278 279 279 280 280 278 278 279 279 279 279 278 277 276 272 270 269 269 269 269 268 268 269 269
Wind_Speed
19 9 12 10 9 7 9 10 9 8 7 5 5 4 4 4 3 3 2 15 10 14 10 8 9 9 10 10 8 6 9 3 6 6 4 4 3 4 2 2 2 3 4
8 8 13 13 13 12 11 13 11 10 7 6 4 3 4 3 3 3 4 6 11 11 8 10 9 10 8 10 11 10 4 3 7 4 4 3 1 2 3 3 3 5 3
13 12 15 16 13 14 14 13 11 10 8 7 5 4 4 4 3 4 3 5 9 11 11 9 8 9 8 9 10 7 7 5 4 8 6 4 4 3 3 6 5 5 5
11 12 14 16 18 15 12 13 11 12 8 9 7 8 5 4 3 3 4 5 9 11 11 11 9 8 6 8 9 8 4 5 9 1 0 2 6 4 2 2 4 6 8
13 16 19 18 16 14 13 10 11 10 9 9 8 7 6 4 4 5 7 7 6 10 12 13 11 10 8 7 9 8 6 4 6 4 3 2 2 2 3 4 2 1 6
8 9 9 11 13 13 12 10 13 12 9 9 8 9 8 7 6 5 5 6 6 6 9 11 11 8 6 8 7 7 8 7 5 5 4 4 4 4 3 0 3 4 5
9 13 17 18 17 17 14 12 12 11 12 10 7 7 7 7 7 7 6 7 5 6 9 11 10 9 9 6 6 7 6 6 4 6 7 4 5 4 4 3 3 3 3
8 16 18 19 20 17 16 14 14 11 7 6 6 6 6 4 5 6 4 6 6 7 9 8 9 8 8 9 9 6 5 4 3 4 3 4 6 4 4 5 5 4 4
9 13 13 14 18 17 17 14 13 10 9 6 6 6 6 6 5 6 6 5 5 6 8 9 10 10 10 9 11 9 10 8 8 6 4 4 5 5 6 4 4 8 8
9 10 9 11 12 13 11 10 10 10 9 8 5 5 6 6 6 5 5 5 5 5 8 9 9 10 10 9 10 8 11 12 9 9 10 8 8 5 4 7 6 5 9
10 10 10 12 11 10 9 8 9 9 7 7 7 5 5 5 6 6 6 5 5 6 9 11 10 9 10 11 10 10 10 11 11 12 12 14 13 11 11 8 8 9 8
15 12 12 13 12 11 10 8 7 7 9 6 6 6 5 6 6 7 8 7 7 5 5 7 9 10 11 12 13 12 11 11 13 14 14 16 11 15 15 10 13 12 11
17 16 16 15 14 11 8 6 5 2 3 5 6 5 5 7 6 6 7 8 9 9 8 7 7 9 11 12 13 15 15 15 16 16 17 17 17 17 12 12 12 10 9
16 15 16 15 15 15 13 12 12 10 8 4 6 6 7 8 8 7 6 6 8 9 11 11 12 12 12 12 12 13 15 16 16 16 18 18 19 19 17 14 15 13 12
16 16 14 13 14 15 13 12 12 12 10 11 10 9 10 3 6 7 8 8 8 9 9 9 10 11 12 11 15 15 15 15 15 15 16 17 19 21 21 14 16 15 13
13 14 15 14 14 13 12 13 13 10 10 11 11 10 10 9 9 9 10 5 9 11 11 12 13 13 11 13 17 16 15 16 17 17 17 17 18 21 23 23 26 23 17
11 12 13 12 10 11 11 11 10 8 9 10 10 11 10 10 10 9 9 9 9 7 9 7 9 12 14 13 17 19 17 17 17 18 18 17 15 18 19 21 23 22 21
10 11 10 11 10 11 10 8 8 9 10 11 10 10 10 9 9 9 9 9 8 8 8 8 10 10 9 24 19 17 15 18 20 20 20 19 21 21 19 18 18 18 18
11 10 9 10 10 11 10 8 10 10 11 11 11 12 10 10 10 9 9 9 8 7 9 10 11 13 12 24 20 14 8 12 18 18 18 19 21 22 19 18 19 18 2
10 8 8 9 8 12 9 9 11 11 12 11 12 11 11 11 11 11 9 8 7 9 7 10 10 15 12 23 22 16 6 5 7 7 13 19 13 12 10 8 16 19 7
11 9 10 11 12 10 9 11 11 13 11 11 11 11 12 12 12 10 9 8 8 7 8 8 8 10 13 15 26 26 9 4 7 9 10 12 22 22 13 19 7 9 12
12 12 11 12 12 12 10 12 13 11 10 10 12 13 13 11 10 11 9 10 8 9 9 8 8 8 9 19 23 28 26 20 13 11 10 13 28 30 29 21 24 23 14
10 10 10 11 11 12 12 11 9 8 8 10 13 13 13 13 12 14 12 9 10 9 9 8 8 9 8 8 20 24 25 25 15 11 20 26 26 27 22 31 28 18 11
9 9 9 10 11 11 11 11 10 9 9 11 12 10 13 15 13 11 12 11 10 10 10 10 9 9 10 9 8 8 9 14 13 13 13 15 17 20 18 16 17 12 11
9 9 9 9 11 10 10 10 9 7 8 9 9 9 9 9 11 13 11 11 13 12 8 8 8 7 8 11 17 14 8 8 9 10 10 12 12 12 12 11 12 11 10
8 8 8 9 10 11 11 11 10 8 7 8 6 6 6 6 6 5 7 23 23 24 25 22 13 8 18 21 21 22 21 20 16 11 10 10 9 10 9 9 9 10 10
Wind_Direction
229 153 158 157 148 153 152 174 168 172 160 158 167 146 141 135 132 141 77 162 142 139 142 143 149 144 156 164 158 161 155 96 126 105 62 50 90 125 147 157 186 199 220
172 164 164 164 174 174 170 182 184 174 168 168 180 135 134 124 128 130 122 121 137 129 136 145 161 152 146 156 162 160 153 117 167 128 118 134 86 184 184 182 201 216 213
185 173 176 176 171 184 180 184 181 175 167 162 133 105 97 103 113 138 128 145 141 150 149 157 152 155 158 164 165 162 173 145 191 174 139 137 189 147 160 211 196 208 214
188 167 172 180 186 186 176 179 177 180 160 154 163 165 170 135 126 132 142 152 159 159 157 159 158 165 157 168 179 168 171 146 174 179 330 109 140 162 165 208 205 212 226
166 176 186 184 184 177 177 164 172 175 161 170 168 159 146 120 132 136 160 178 176 165 162 168 168 180 167 173 170 169 164 158 168 155 139 115 94 86 143 172 196 253 230
174 160 164 165 175 176 179 166 179 184 174 177 169 167 150 143 140 140 164 177 165 171 172 154 168 167 158 163 173 180 178 183 161 182 160 159 163 173 130 134 130 212 230
150 159 167 175 179 179 175 173 176 180 180 171 168 164 155 152 165 171 177 174 170 170 176 166 170 177 185 172 163 173 178 153 161 180 199 185 184 151 161 155 187 214 258
180 184 182 178 177 175 177 176 175 176 153 148 155 152 153 163 169 179 181 187 188 180 175 175 163 170 180 181 177 174 153 145 174 200 219 238 211 173 168 166 180 232 243
202 191 176 176 172 171 174 175 166 171 177 162 158 160 155 161 167 172 168 171 174 181 173 178 169 170 168 171 172 186 202 203 216 210 216 232 254 241 196 179 180 204 233
70 105 135 149 159 160 152 151 154 171 170 179 170 168 160 161 164 158 167 172 172 166 164 177 174 175 177 178 180 185 189 192 202 206 212 226 235 245 231 220 217 208 230
81 95 101 132 122 123 126 136 155 165 171 181 188 167 171 164 162 171 175 173 165 166 168 173 173 180 194 191 200 203 196 198 205 211 213 226 233 235 235 225 223 226 221
49 71 105 114 115 122 133 144 146 165 191 177 194 201 173 179 176 180 178 173 179 182 183 177 176 186 191 199 207 214 216 212 217 221 223 227 226 231 231 224 225 225 224
49 54 58 62 68 79 91 100 87 133 178 189 194 197 194 197 202 201 186 182 183 187 187 190 195 199 202 205 210 213 215 216 220 223 227 226 228 233 229 226 229 228 233
53 58 53 53 56 58 53 47 42 31 2 234 205 208 207 208 214 212 203 196 193 198 203 208 209 212 214 214 216 217 223 225 226 226 230 228 230 235 234 231 233 235 237
46 51 52 48 48 49 43 42 40 20 32 55 55 35 16 246 230 213 214 215 211 216 213 213 221 224 222 221 223 225 225 227 233 236 236 234 233 232 231 231 236 235 235
53 50 52 51 48 48 44 43 39 16 35 43 45 35 25 25 26 26 23 319 238 229 226 227 228 225 228 224 219 224 232 237 240 241 241 240 235 239 235 225 233 235 233
75 57 52 48 43 49 50 48 36 15 31 41 35 31 25 26 16 11 24 17 3 357 8 335 275 253 248 242 228 220 232 237 235 237 241 246 245 240 245 239 234 243 241
52 59 57 45 33 41 41 49 49 43 35 33 30 27 22 19 14 18 14 13 1 4 360 357 0 3 33 5 359 345 254 244 243 244 245 246 250 247 245 245 245 233 235
67 49 44 56 24 50 42 52 52 48 44 34 30 26 23 21 19 14 6 10 3 7 23 34 25 20 12 4 355 344 318 269 249 247 247 245 249 252 243 245 250 249 160
65 59 58 58 39 37 34 43 47 43 41 33 28 25 25 26 21 14 11 4 22 35 42 51 41 34 24 13 8 356 295 281 304 333 32 15 354 328 298 270 253 247 156
53 56 55 47 35 31 40 46 48 45 36 38 35 31 33 36 27 21 14 16 42 55 52 57 44 35 27 24 28 23 22 17 63 52 40 32 32 41 66 50 39 79 100
34 36 46 41 31 23 40 42 41 36 40 40 44 42 30 38 36 43 35 25 36 45 46 47 48 35 31 33 37 43 50 58 66 55 44 42 46 51 59 65 71 77 81
43 39 40 43 32 26 27 41 32 35 45 51 50 49 43 41 40 43 41 45 45 49 48 46 43 34 28 29 37 49 56 57 67 61 61 52 45 47 47 52 53 54 65
43 49 51 49 43 32 32 33 23 26 39 47 45 41 50 46 41 41 41 42 42 45 45 47 41 41 38 31 24 39 44 48 57 61 55 55 50 49 47 43 45 43 47
40 47 49 52 47 40 37 28 30 32 55 52 46 45 43 44 50 48 43 45 47 52 54 45 47 41 45 49 56 54 44 48 58 75 64 55 50 48 41 40 39 42 39
49 56 48 53 46 46 41 27 21 37 47 61 50 38 49 49 47 59 65 54 55 53 54 55 57 46 61 60 63 66 66 62 51 53 44 54 64 62 56 48 44 42 38